Flag for Taiwan Weather past 2 weeks in Taipei, Taiwan

Now
77 °F

Passing clouds.


Feels Like: 78 °F
Forecast: 82 / 93 °F
Wind: 2 mph from North

Location: Sungshan / Taipei

Current Time: Jul 31, 2015 at 4:50:23 AM

Latest Report: Jul 31, 2015 at 4:00 AM


Visibility: N/A

Pressure: 29.89 "Hg

Humidity: 83%

Dew point: 72 °F

Location of TaipeiLocation

Historic Weather in Taipei — Graph

°F

Taipei temperature yesterday

Maximum temperature yesterday: 93 °F (at 1:00 PM)
Minimum temperature yesterday: 81 °F (at 12:00 AM)
Average temperature yesterday: 84 °F

Past Weeks' High & Low Weather Summary

 TemperatureHumidityPressure
High97 °F (Jul 21, 12:30 PM)100% (Jul 23, 2:30 PM)29.92 "Hg (Jul 23, 2:30 PM)
Low77 °F (Jul 23, 1:30 PM)34% (Jul 28, 12:30 PM)29.50 "Hg (Jul 16, 1:30 PM)
Average86 °F66%29.76 "Hg
* Reported Jul 16 3:00 AM — Jul 31 3:00 AM, Taipei, Weather by CustomWeather, © 2015

Note: Actual official high and low records may vary slightly from our data, if they occured in-between our weather recording intervals... More about our weather records

Advertising

Taipei weather history for previous 24 hours

 ConditionsComfort  
Time TempWeatherWind HumidityBarometerVisibility
3:00 AM
Fri, Jul 31
77 °FPassing clouds.3 mph79%29.89 "HgN/A
2:00 AM79 °FPassing clouds.2 mph79%29.89 "HgN/A
1:00 AM79 °FPassing clouds.2 mph79%29.89 "HgN/A
12:00 AM79 °FPassing clouds.No wind79%29.89 "HgN/A
11:00 PM
Thu, Jul 30
81 °FPassing clouds.3 mph74%29.89 "HgN/A
10:30 PM81 °FPassing clouds.1 mph74%29.89 "HgN/A
10:00 PM81 °FPassing clouds.3 mph74%29.89 "HgN/A
9:30 PM81 °FPassing clouds.6 mph74%29.89 "HgN/A
9:00 PM81 °FPassing clouds.6 mph74%29.89 "HgN/A
8:30 PM81 °FPassing clouds.3 mph79%29.89 "HgN/A
8:00 PM81 °FPassing clouds.5 mph79%29.89 "HgN/A
7:30 PM82 °FPassing clouds.3 mph74%29.86 "HgN/A
7:00 PM82 °FPassing clouds.3 mph79%29.86 "HgN/A
6:30 PM82 °FPartly sunny.5 mph79%29.86 "HgN/A
6:00 PM82 °FPartly sunny.6 mph79%29.86 "HgN/A
5:30 PM81 °FBroken clouds.5 mph79%29.86 "HgN/A
5:00 PM81 °FBroken clouds.7 mph79%29.86 "HgN/A
4:30 PM81 °FSprinkles. Partly sunny.9 mph79%29.86 "HgN/A
4:04 PM82 °FThundershowers. Partly sunny.7 mph79%29.86 "HgN/A
3:30 PM82 °FThunderstorms. Partly sunny.5 mph79%29.86 "Hg6 mi
3:00 PM84 °FThunderstorms. Partly sunny.7 mph74%29.86 "HgN/A
2:30 PM88 °FThunderstorms. Partly sunny.5 mph59%29.86 "HgN/A
2:00 PM88 °FThundershowers. Partly sunny.7 mph59%29.86 "HgN/A
1:30 PM91 °FBroken clouds.8 mph52%29.86 "HgN/A
1:00 PM93 °FScattered clouds.12 mph53%29.86 "HgN/A
12:30 PM91 °FScattered clouds.9 mph56%29.89 "HgN/A
11:30 AM91 °FScattered clouds.8 mph52%29.89 "HgN/A
11:00 AM91 °FPartly sunny.3 mph56%29.89 "HgN/A
10:30 AM90 °FPartly sunny.5 mph59%29.89 "HgN/A
10:00 AM90 °FScattered clouds.6 mph59%29.89 "HgN/A
9:30 AM88 °FPassing clouds.6 mph62%29.89 "HgN/A
9:00 AM86 °FScattered clouds.5 mph62%29.92 "HgN/A
8:30 AM86 °FScattered clouds.9 mph62%29.92 "HgN/A
8:00 AM84 °FPartly sunny.3 mph66%29.89 "HgN/A
7:30 AM84 °FPartly sunny.3 mph70%29.89 "HgN/A
7:00 AM82 °FScattered clouds.3 mph74%29.89 "HgN/A
6:30 AM82 °FScattered clouds.1 mph74%29.89 "HgN/A
5:00 AM81 °FPassing clouds.3 mph74%29.86 "HgN/A
4:00 AM81 °FPassing clouds.1 mph79%29.86 "HgN/A
Weather by CustomWeather, © 2015

See weather overviewHow to use our weather pages